Location: Atl?dere
(36.8614°N, 29.6924°E)
Time: 22:26:26
(UTC+00:00)

Daily predictions for brighter satellites

Satellite Brightness Start Highest point End
(mag) Time Altitude Azimuth Time Altitude Azimuth Time Altitude Azimuth
Cosmos 540 Rocket 3.6 15:29:29 10° SSW 15:34:37 83° WNW 15:39:46 10° NNE
Cosmos 468 Rocket 4.0 15:32:59 10° SSW 15:38:11 81° ESE 15:43:22 10° NNE
Cosmos 1733 Rocket 3.4 15:36:31 10° N 15:40:42 42° E 15:44:53 10° SSE
Cosmos 2228 Rocket 3.1 15:40:11 10° S 15:44:39 68° E 15:49:11 10° NNE
Cosmos 2279 Rocket 4.0 15:39:16 10° N 15:45:27 68° E 15:51:35 10° SSE
Cosmos 841 Rocket 3.9 15:42:46 10° S 15:47:43 44° ESE 15:52:41 10° NNE
Cosmos 1898 Rocket 4.2 15:47:30 10° N 15:52:15 32° ENE 15:56:59 10° SE
PSLV R/B 3.5 15:49:43 10° S 15:53:45 81° WSW 15:57:50 10° NNW
SL-16 R/B 3.2 15:49:23 10° SSE 15:54:02 27° ESE 15:58:41 10° NE
Cosmos 1980 4.0 15:48:48 10° SSW 15:54:25 73° WNW 16:00:05 10° NNE
Aureole 1 Rocket 4.5 15:48:42 10° N 15:56:00 49° ENE 16:02:20 10° SE
Dummy Sat-01 4.5 15:52:36 10° S 15:56:14 78° E 15:59:55 10° N
Okean 1-7 3.2 15:55:14 10° SSE 15:59:21 49° E 16:03:29 10° NNE
Cosmos 1703 4.1 15:56:30 10° SSE 15:59:23 24° E 16:02:18 10° NE
SMAP 4.3 15:56:18 10° S 16:00:46 47° W 16:05:16 10° NNW
USA 267 4.3 16:01:49 10° SSE 16:08:05 48° SW 16:14:22 10° NW
ACS3 Solar Sail 2.1 16:02:09 10° SE 16:08:11 46° ENE 16:14:15 10° N
ATLAS 2AS CENTAUR R/B 3.8 16:03:16 10° N 16:08:20 22° NE 16:11:35 16° ENE
Lacrosse 5 3.8 16:05:33 10° WNW 16:10:05 33° WSW 16:14:36 10° S
BREEZE-M DEB 3.2 16:08:10 10° SSW 16:10:22 36° SE 16:12:58 18° ENE
Cosmos 1953 2.3 16:07:57 10° N 16:11:39 77° W 16:15:21 10° S
Cosmos 1437 Rocket 4.2 16:11:28 10° SE 16:13:35 17° E 16:13:35 17° E
SKYMED 2 3.7 16:11:00 10° N 16:15:21 79° WNW 16:19:41 10° SSW
Cosmos 2369 Rocket 4.0 16:13:43 10° NNE 16:15:05 12° NE 16:15:05 12° NE
DNEPR-1 R/B 3.5 16:18:07 10° NNW 16:22:38 57° ENE 16:26:43 10° SE
Cosmos 372 Rocket 3.9 16:17:40 10° N 16:22:42 59° ENE 16:27:42 10° SSE
Cosmos 1174 4.0 16:19:49 10° NNW 16:23:47 89° WSW 16:28:41 10° SSE
EO 1 Delta rocket 3.8 16:21:35 10° N 16:26:12 86° WNW 16:31:00 10° SSW
Aureole 3 3.1 16:29:00 10° SSE 16:31:27 38° ESE 16:31:27 38° ESE
Cosmos 1908 Rocket 3.6 16:29:30 10° N 16:33:43 49° E 16:37:52 10° SSE
BREEZE-M TANK 3.2 16:30:20 10° WNW 16:34:04 66° NNE 16:40:37 16° ESE
Cosmos 2026 Rocket 4.1 16:28:30 10° SSE 16:34:40 54° E 16:40:51 10° NNE
Meteor 1-31 Rocket 2.4 16:31:26 10° SSE 16:34:59 80° ENE 16:38:33 10° N
Cosmos 1932 4.3 16:30:09 10° SSW 16:36:20 84° ESE 16:41:22 16° NNE
Delta 2 Rocket 2.6 16:33:20 10° W 16:36:33 71° S 16:37:13 50° ESE
Cosmos 1428 Rocket 4.4 16:35:20 10° S 16:41:33 87° E 16:47:45 10° N
Cosmos 1937 Rocket 3.3 16:37:21 10° NNW 16:42:29 67° ENE 16:47:37 10° SSE
Cosmos 2237 Rocket 4.0 16:44:01 10° WSW 16:48:51 28° WNW 16:53:42 10° N
Cosmos 1943 Rocket 2.9 16:44:23 10° NNW 16:49:54 54° WSW 16:55:18 10° S
YAOGAN 3 4.3 16:46:19 10° SSE 16:50:33 77° ENE 16:54:47 10° N
Cosmos 1825 2.3 16:48:53 10° S 16:50:59 42° S 16:50:59 42° S
SL-08 R/B 3.9 16:57:07 39° ESE 16:57:07 39° ESE 17:00:58 10° S
RESURS DK-1 3.5 16:52:46 10° NW 16:56:35 42° WSW 17:00:23 10° S
NOAA 6 4.3 16:51:36 10° S 16:56:40 68° WSW 17:01:46 10° NNW
Hubble Space Telescope 2.8 16:59:23 10° SSW 17:01:32 15° SSE 17:01:32 15° SSE
BlueWalker 3 4.5 16:59:45 10° N 16:59:51 10° N 16:59:51 10° N
Cosmos 2278 Rocket 4.1 16:58:55 10° NW 17:03:46 30° WSW 17:08:36 10° SSW
OAO 1 Rocket 4.5 16:58:43 10° WSW 17:04:01 70° S 17:05:11 53° ESE
CZ-4C R/B 3.7 17:00:54 10° W 17:04:24 23° NW 17:08:01 12° N
YAOGAN 1 3.4 17:04:46 10° S 17:08:54 49° W 17:13:03 10° NNW
Meteor 1-24 Rocket 3.7 17:06:15 10° S 17:12:05 77° E 17:15:51 24° NNE
ATLAS 5 CENTAUR R/B 3.2 17:11:37 10° W 17:13:53 18° NW 17:14:21 17° NW
SPOT 1/Viking Rocket 3.6 17:11:19 10° S 17:16:29 77° W 17:21:39 10° NNW
Cosmos 1892 4.2 17:14:26 10° SSW 17:15:59 25° SSW 17:15:59 25° SSW
Cosmos 1943 4.0 17:16:20 10° S 17:19:58 36° SSE 17:19:58 36° SSE
Meteor 2-5 Rocket 3.7 17:16:43 10° S 17:22:26 90° W 17:25:03 35° N
Resurs 1-3 4.1 17:20:16 10° S 17:24:29 57° W 17:28:45 10° NNW
Cosmos 1656 Rocket 3.9 17:29:08 10° NNW 17:33:23 55° NNW 17:33:23 55° NNW
SL-16 R/B 3.5 17:32:40 10° SW 17:37:53 38° WNW 17:40:55 22° N
ACS3 Solar Sail 3.9 17:46:41 10° SSW 17:51:51 26° W 17:57:04 10° NW
ATLAS 2AS CENTAUR R/B 2.8 17:53:13 10° NW 17:59:05 67° WNW 17:59:05 67° WNW
Cosmos 2369 Rocket 4.0 17:55:11 10° NNW 17:56:55 21° NNW 17:56:55 21° NNW
